| time (UTC) | temp C | wind direction | speed KPH | gust KPH | rain 1hr cm | rain 24hr cm | rain mn cm | humidity % | barometer mb |
| 20260506155900 | 12 | 146 | 3.2 | 4.8 | 0.00 | 0.00 | 0.00 | 66 | 1016.9 |
| 20260506155356 | 12 | 351 | 8.0 | 16.1 | 0.00 | 0.00 | 0.00 | 63 | 1017.1 |
| 20260506153513 | 11 | 207 | 8.0 | 11.3 | 0.00 | 0.00 | 0.00 | 68 | 1017.3 |
| 20260506153011 | 12 | 178 | 4.8 | 6.4 | 0.00 | 0.00 | 0.00 | 68 | 1017.6 |
| 20260506152508 | 11 | 174 | 6.4 | 6.4 | 0.00 | 0.00 | 0.00 | 71 | 1017.5 |
| 20260506152006 | 11 | 340 | 1.6 | 4.8 | 0.00 | 0.00 | 0.00 | 68 | 1017.4 |
| 20260506151503 | 11 | 53 | 4.8 | 6.4 | 0.00 | 0.00 | 0.00 | 68 | 1017.3 |
| 20260506151000 | 11 | 101 | 6.4 | 8.0 | 0.00 | 0.00 | 0.00 | 69 | 1017.2 |
| 20260506150456 | 11 | 133 | 11.3 | 12.9 | 0.00 | 0.00 | 0.00 | 68 | 1017.2 |
| 20260506145953 | 11 | 184 | 9.7 | 11.3 | 0.00 | 0.00 | 0.00 | 69 | 1017.1 |
| 20260506145450 | 11 | 134 | 6.4 | 8.0 | 0.00 | 0.00 | 0.00 | 70 | 1017.0 |
| 20260506144948 | 10 | 197 | 1.6 | 4.8 | 0.00 | 0.00 | 0.00 | 75 | 1017.0 |
| 20260506144444 | 10 | 74 | 6.4 | 6.4 | 0.00 | 0.00 | 0.00 | 72 | 1017.0 |
| 20260506143942 | 10 | 184 | 6.4 | 8.0 | 0.00 | 0.00 | 0.00 | 73 | 1017.2 |
| 20260506143439 | 10 | 119 | 4.8 | 6.4 | 0.00 | 0.00 | 0.00 | 74 | 1017.0 |
| 20260506142937 | 10 | 225 | 11.3 | 16.1 | 0.00 | 0.00 | 0.00 | 72 | 1017.3 |
| 20260506142435 | 10 | 95 | 6.4 | 8.0 | 0.00 | 0.00 | 0.00 | 77 | 1017.1 |
| 20260506141933 | 10 | 72 | 3.2 | 4.8 | 0.00 | 0.00 | 0.00 | 76 | 1017.2 |
| 20260506141430 | 9 | 40 | 1.6 | 1.6 | 0.00 | 0.00 | 0.00 | 77 | 1017.5 |
| 20260506140929 | 10 | 222 | 1.6 | 1.6 | 0.00 | 0.00 | 0.00 | 78 | 1017.5 |
| 20260506140425 | 10 | 244 | 6.4 | 11.3 | 0.00 | 0.00 | 0.00 | 79 | 1017.5 |
| 20260506135922 | 10 | 182 | 3.2 | 4.8 | 0.00 | 0.00 | 0.00 | 78 | 1017.4 |
| 20260506135420 | 9 | 56 | 1.6 | 1.6 | 0.00 | 0.00 | 0.00 | 79 | 1017.2 |
| 20260506134915 | 9 | 159 | 11.3 | 16.1 | 0.00 | 0.00 | 0.00 | 78 | 1017.5 |
| 20260506134412 | 9 | 99 | 3.2 | 8.0 | 0.00 | 0.00 | 0.00 | 81 | 1017.2 |
| 20260506133909 | 8 | 83 | 4.8 | 6.4 | 0.00 | 0.00 | 0.00 | 80 | 1017.1 |
| 20260506133405 | 8 | 53 | 6.4 | 8.0 | 0.00 | 0.00 | 0.00 | 82 | 1017.5 |
| 20260506132902 | 8 | 280 | 3.2 | 4.8 | 0.00 | 0.00 | 0.00 | 82 | 1017.2 |
| 20260506132359 | 8 | 28 | 3.2 | 4.8 | 0.00 | 0.00 | 0.00 | 82 | 1017.3 |
| 20260506131857 | 8 | 321 | 8.0 | 11.3 | 0.00 | 0.00 | 0.00 | 84 | 1017.2 |
| 20260506131353 | 8 | 108 | 6.4 | 11.3 | 0.00 | 0.00 | 0.00 | 84 | 1017.2 |
| 20260506130851 | 8 | 280 | 3.2 | 4.8 | 0.00 | 0.00 | 0.00 | 84 | 1017.2 |
| 20260506130347 | 8 | 296 | 3.2 | 4.8 | 0.00 | 0.00 | 0.00 | 86 | 1017.2 |
| 20260506125845 | 8 | 349 | 0.0 | 1.6 | 0.00 | 0.00 | 0.00 | 86 | 1017.0 |
| 20260506125343 | 8 | 328 | 4.8 | 6.4 | 0.00 | 0.00 | 0.00 | 87 | 1016.9 |
| 20260506124841 | 8 | 21 | 3.2 | 4.8 | 0.00 | 0.00 | 0.00 | 86 | 1016.6 |
| 20260506124337 | 8 | 61 | 8.0 | 11.3 | 0.00 | 0.00 | 0.00 | 86 | 1016.7 |
| 20260506123835 | 8 | 286 | 3.2 | 4.8 | 0.00 | 0.00 | 0.00 | 86 | 1016.6 |
| 20260506123334 | 8 | 117 | 4.8 | 8.0 | 0.00 | 0.00 | 0.00 | 86 | 1017.0 |
| 20260506122830 | 8 | 352 | 3.2 | 4.8 | 0.00 | 0.00 | 0.00 | 87 | 1016.7 |
| 20260506122327 | 8 | 205 | 3.2 | 4.8 | 0.00 | 0.00 | 0.00 | 87 | 1016.7 |
| 20260506121826 | 7 | 274 | 1.6 | 4.8 | 0.00 | 0.00 | 0.00 | 88 | 1016.6 |
| 20260506121322 | 7 | 280 | 4.8 | 6.4 | 0.00 | 0.00 | 0.00 | 89 | 1016.9 |
| 20260506120819 | 7 | 308 | 0.0 | 1.6 | 0.00 | 0.00 | 0.00 | 89 | 1017.0 |
| 20260506120317 | 7 | 201 | 0.0 | 1.6 | 0.00 | 0.00 | 0.00 | 89 | 1017.1 |
| 20260506115814 | 7 | 358 | 1.6 | 1.6 | 0.00 | 0.00 | 0.00 | 89 | 1017.2 |
| 20260506115313 | 7 | 3 | 6.4 | 8.0 | 0.00 | 0.00 | 0.00 | 89 | 1016.9 |
| 20260506114810 | 7 | 123 | 4.8 | 6.4 | 0.00 | 0.00 | 0.00 | 89 | 1016.7 |
| 20260506114308 | 7 | 57 | 4.8 | 6.4 | 0.00 | 0.00 | 0.00 | 89 | 1016.6 |
| 20260506113806 | 7 | 106 | 6.4 | 12.9 | 0.00 | 0.00 | 0.00 | 89 | 1016.6 |
| 20260506113303 | 7 | 216 | 1.6 | 1.6 | 0.00 | 0.00 | 0.00 | 90 | 1016.6 |
| 20260506112800 | 7 | 20 | 1.6 | 4.8 | 0.00 | 0.00 | 0.00 | 89 | 1016.5 |
| 20260506112257 | 7 | 213 | 1.6 | 1.6 | 0.00 | 0.00 | 0.00 | 90 | 1016.6 |
| 20260506111754 | 7 | 275 | 0.0 | 0.0 | 0.00 | 0.00 | 0.00 | 90 | 1016.5 |
| 20260506111252 | 7 | 189 | 1.6 | 4.8 | 0.00 | 0.00 | 0.00 | 90 | 1016.2 |
| 20260506110749 | 7 | 262 | 3.2 | 6.4 | 0.00 | 0.00 | 0.00 | 89 | 1016.3 |
| 20260506110247 | 7 | 301 | 6.4 | 6.4 | 0.00 | 0.00 | 0.00 | 89 | 1016.1 |
| 20260506105743 | 7 | 202 | 0.0 | 1.6 | 0.00 | 0.00 | 0.00 | 89 | 1015.8 |
| 20260506105240 | 7 | 235 | 1.6 | 1.6 | 0.00 | 0.00 | 0.00 | 89 | 1015.9 |
| 20260506104738 | 7 | 214 | 1.6 | 1.6 | 0.00 | 0.00 | 0.00 | 89 | 1015.7 |
| 20260506104235 | 7 | 305 | 1.6 | 1.6 | 0.00 | 0.00 | 0.00 | 89 | 1015.5 |
| 20260506103732 | 7 | 268 | 0.0 | 0.0 | 0.00 | 0.00 | 0.00 | 89 | 1015.6 |
| 20260506103230 | 7 | 301 | 1.6 | 1.6 | 0.00 | 0.00 | 0.00 | 89 | 1015.6 |
| 20260506102727 | 7 | 241 | 1.6 | 1.6 | 0.00 | 0.00 | 0.00 | 89 | 1015.5 |
| 20260506102225 | 7 | 337 | 3.2 | 4.8 | 0.00 | 0.00 | 0.00 | 88 | 1015.4 |
| 20260506101721 | 7 | 308 | 4.8 | 6.4 | 0.00 | 0.00 | 0.00 | 88 | 1014.9 |
| 20260506101218 | 7 | 273 | 0.0 | 0.0 | 0.00 | 0.00 | 0.00 | 88 | 1014.7 |
| 20260506100716 | 7 | 230 | 1.6 | 1.6 | 0.00 | 0.00 | 0.00 | 88 | 1014.5 |
| 20260506100214 | 7 | 254 | 3.2 | 4.8 | 0.00 | 0.00 | 0.00 | 88 | 1014.5 |
| 20260506095712 | 7 | 309 | 3.2 | 4.8 | 0.00 | 0.00 | 0.00 | 88 | 1014.1 |
| 20260506095209 | 7 | 354 | 1.6 | 1.6 | 0.00 | 0.00 | 0.00 | 88 | 1014.2 |
| 20260506094706 | 7 | 233 | 1.6 | 1.6 | 0.00 | 0.00 | 0.00 | 87 | 1014.2 |
| 20260506094204 | 7 | 276 | 4.8 | 6.4 | 0.00 | 0.00 | 0.00 | 87 | 1014.3 |
| 20260506093703 | 7 | 121 | 1.6 | 4.8 | 0.00 | 0.00 | 0.00 | 88 | 1014.4 |
| 20260506093159 | 7 | 208 | 1.6 | 1.6 | 0.00 | 0.00 | 0.00 | 88 | 1014.2 |
| 20260506092657 | 7 | 277 | 0.0 | 0.0 | 0.00 | 0.00 | 0.00 | 88 | 1014.3 |
| 20260506092154 | 7 | 44 | 1.6 | 4.8 | 0.00 | 0.00 | 0.00 | 88 | 1014.4 |
| 20260506091652 | 7 | 286 | 0.0 | 1.6 | 0.00 | 0.00 | 0.00 | 87 | 1014.1 |
| 20260506091149 | 7 | 280 | 1.6 | 1.6 | 0.00 | 0.00 | 0.00 | 86 | 1013.9 |
| 20260506090647 | 7 | 10 | 3.2 | 4.8 | 0.00 | 0.00 | 0.00 | 86 | 1013.4 |
| 20260506090143 | 7 | 65 | 0.0 | 0.0 | 0.00 | 0.00 | 0.00 | 86 | 1013.4 |
| 20260506085640 | 7 | 355 | 4.8 | 6.4 | 0.00 | 0.00 | 0.00 | 85 | 1013.4 |
| 20260506085136 | 7 | 290 | 0.0 | 1.6 | 0.00 | 0.00 | 0.00 | 85 | 1013.5 |
| 20260506084633 | 7 | 197 | 1.6 | 1.6 | 0.00 | 0.00 | 0.00 | 86 | 1013.3 |
| 20260506084130 | 7 | 311 | 0.0 | 1.6 | 0.00 | 0.00 | 0.00 | 86 | 1013.4 |
| 20260506083627 | 8 | 205 | 1.6 | 1.6 | 0.00 | 0.00 | 0.00 | 87 | 1013.3 |
| 20260506083124 | 8 | 203 | 0.0 | 1.6 | 0.00 | 0.00 | 0.00 | 85 | 1013.5 |
| 20260506082621 | 7 | 222 | 1.6 | 1.6 | 0.00 | 0.00 | 0.00 | 85 | 1013.5 |
| 20260506082116 | 8 | 227 | 4.8 | 6.4 | 0.00 | 0.00 | 0.00 | 85 | 1013.2 |
| 20260506081615 | 8 | 226 | 0.0 | 1.6 | 0.00 | 0.00 | 0.00 | 85 | 1013.3 |
| 20260506081112 | 8 | 105 | 3.2 | 4.8 | 0.00 | 0.00 | 0.00 | 85 | 1013.5 |
| 20260506080610 | 8 | 98 | 3.2 | 4.8 | 0.00 | 0.00 | 0.00 | 85 | 1013.7 |
| 20260506080106 | 8 | 275 | 1.6 | 1.6 | 0.00 | 0.00 | 0.00 | 85 | 1013.2 |
| 20260506073049 | 8 | 351 | 4.8 | 4.8 | 0.00 | 0.00 | 0.00 | 86 | 1012.4 |
| 20260506072547 | 8 | 74 | 4.8 | 8.0 | 0.00 | 0.00 | 0.00 | 85 | 1012.8 |
| 20260506072044 | 8 | 58 | 3.2 | 4.8 | 0.00 | 0.00 | 0.00 | 86 | 1012.7 |
| 20260506071542 | 8 | 189 | 4.8 | 6.4 | 0.00 | 0.00 | 0.00 | 85 | 1012.6 |
| 20260506071040 | 8 | 152 | 1.6 | 1.6 | 0.00 | 0.00 | 0.00 | 86 | 1012.7 |
| 20260506070536 | 8 | 211 | 1.6 | 1.6 | 0.00 | 0.00 | 0.00 | 85 | 1013.0 |
| 20260506062514 | 8 | 277 | 4.8 | 8.0 | 0.00 | 0.00 | 0.00 | 88 | 1012.8 |
| 20260506062011 | 8 | 96 | 11.3 | 17.7 | 0.00 | 0.00 | 0.00 | 90 | 1012.7 |
| 20260506061506 | 8 | 322 | 3.2 | 8.0 | 0.00 | 0.00 | 0.00 | 92 | 1012.7 |
| 20260506061004 | 8 | 282 | 0.0 | 1.6 | 0.00 | 0.00 | 0.00 | 92 | 1013.2 |
| 20260506060503 | 7 | 335 | 1.6 | 1.6 | 0.00 | 0.00 | 0.00 | 93 | 1013.5 |
| 20260506050931 | 8 | 260 | 1.6 | 1.6 | 0.00 | 0.00 | 0.00 | 91 | 1013.7 |
| 20260506050429 | 8 | 255 | 0.0 | 0.0 | 0.00 | 0.00 | 0.00 | 91 | 1013.5 |
| 20260506044919 | 8 | 226 | 0.0 | 1.6 | 0.00 | 2.16 | 2.16 | 91 | 1013.4 |
| 20260506044418 | 8 | 271 | 1.6 | 1.6 | 0.00 | 2.16 | 2.16 | 91 | 1013.2 |
| 20260506043914 | 8 | 289 | 0.0 | 0.0 | 0.00 | 2.16 | 2.16 | 91 | 1013.1 |
| 20260506043412 | 8 | 354 | 8.0 | 8.0 | 0.00 | 2.16 | 2.16 | 91 | 1013.1 |
| 20260506042909 | 8 | 256 | 0.0 | 0.0 | 0.00 | 2.16 | 2.16 | 91 | 1013.2 |
| 20260506042409 | 8 | 118 | 8.0 | 16.1 | 0.00 | 2.16 | 2.16 | 91 | 1013.0 |
| 20260506041906 | 8 | 231 | 0.0 | 1.6 | 0.00 | 2.16 | 2.16 | 91 | 1013.0 |
| 20260506041403 | 8 | 181 | 0.0 | 1.6 | 0.00 | 2.16 | 2.16 | 91 | 1013.0 |
| 20260506040900 | 8 | 347 | 4.8 | 8.0 | 0.00 | 2.16 | 2.16 | 91 | 1012.4 |
| 20260506040358 | 8 | 213 | 3.2 | 4.8 | 0.00 | 2.16 | 2.16 | 91 | 1012.5 |
| 20260506035854 | 8 | 277 | 3.2 | 4.8 | 0.00 | 2.16 | 2.16 | 90 | 1012.4 |
| 20260506035351 | 8 | 271 | 3.2 | 4.8 | 0.00 | 2.16 | 2.16 | 90 | 1012.4 |
| 20260506034849 | 8 | 267 | 3.2 | 8.0 | 0.00 | 2.16 | 2.16 | 90 | 1012.4 |
| 20260506034346 | 8 | 97 | 4.8 | 6.4 | 0.00 | 2.16 | 2.16 | 90 | 1012.3 |
| 20260506033842 | 8 | 168 | 6.4 | 6.4 | 0.00 | 2.16 | 2.16 | 90 | 1012.1 |
| 20260506033339 | 8 | 184 | 0.0 | 1.6 | 0.00 | 2.16 | 2.16 | 90 | 1012.3 |
| 20260506032836 | 8 | 18 | 4.8 | 4.8 | 0.00 | 2.16 | 2.16 | 90 | 1012.2 |
| 20260506032333 | 8 | 340 | 8.0 | 8.0 | 0.00 | 2.16 | 2.16 | 90 | 1012.1 |
| 20260506031830 | 8 | 324 | 4.8 | 6.4 | 0.00 | 2.16 | 2.16 | 91 | 1012.0 |
| 20260506031327 | 8 | 108 | 1.6 | 4.8 | 0.00 | 2.16 | 2.16 | 91 | 1011.7 |
| 20260506030825 | 8 | 50 | 4.8 | 8.0 | 0.00 | 2.16 | 2.16 | 91 | 1011.9 |
| 20260506030323 | 8 | 48 | 3.2 | 4.8 | 0.00 | 2.16 | 2.16 | 91 | 1011.7 |
| 20260506025819 | 8 | 245 | 4.8 | 8.0 | 0.00 | 2.16 | 2.16 | 91 | 1011.6 |
| 20260506025315 | 8 | 231 | 1.6 | 1.6 | 0.00 | 2.16 | 2.16 | 90 | 1011.9 |
| 20260506024813 | 8 | 24 | 3.2 | 4.8 | 0.00 | 2.16 | 2.16 | 90 | 1011.6 |
| 20260506024310 | 8 | 183 | 4.8 | 6.4 | 0.00 | 2.16 | 2.16 | 90 | 1011.6 |
| 20260506023806 | 8 | 354 | 6.4 | 8.0 | 0.00 | 2.16 | 2.16 | 90 | 1011.4 |
| 20260506023303 | 8 | 335 | 3.2 | 4.8 | 0.00 | 2.16 | 2.16 | 90 | 1011.3 |
| 20260506022759 | 8 | 303 | 3.2 | 4.8 | 0.00 | 2.16 | 2.16 | 90 | 1011.1 |
| 20260506022257 | 8 | 57 | 1.6 | 4.8 | 0.00 | 2.16 | 2.16 | 90 | 1010.9 |
| 20260506021755 | 8 | 342 | 3.2 | 6.4 | 0.00 | 2.16 | 2.16 | 90 | 1010.9 |
| 20260506021252 | 8 | 335 | 3.2 | 6.4 | 0.00 | 2.16 | 2.16 | 90 | 1010.9 |
| 20260506020748 | 8 | 305 | 1.6 | 4.8 | 0.00 | 2.16 | 2.16 | 90 | 1010.9 |
| 20260506020246 | 8 | 163 | 0.0 | 1.6 | 0.00 | 2.16 | 2.16 | 91 | 1010.7 |
| 20260506015744 | 8 | 58 | 3.2 | 6.4 | 0.00 | 2.16 | 2.16 | 91 | 1010.7 |
| 20260506015241 | 8 | 163 | 3.2 | 4.8 | 0.00 | 2.16 | 2.16 | 92 | 1010.8 |
| 20260506014738 | 8 | 107 | 3.2 | 4.8 | 0.00 | 2.16 | 2.16 | 91 | 1010.6 |
| 20260506014234 | 8 | 38 | 3.2 | 6.4 | 0.00 | 2.16 | 2.16 | 91 | 1010.8 |
| 20260506013732 | 8 | 336 | 3.2 | 4.8 | 0.00 | 2.16 | 2.16 | 91 | 1010.6 |
| 20260506013229 | 8 | 339 | 4.8 | 8.0 | 0.00 | 2.16 | 2.16 | 91 | 1010.5 |
| 20260506012725 | 8 | 21 | 6.4 | 6.4 | 0.00 | 2.16 | 2.16 | 92 | 1010.4 |
| 20260506012222 | 8 | 287 | 4.8 | 6.4 | 0.00 | 2.16 | 2.16 | 92 | 1010.2 |
| 20260506011719 | 8 | 250 | 1.6 | 1.6 | 0.00 | 2.16 | 2.16 | 92 | 1010.5 |
| 20260506011215 | 8 | 260 | 0.0 | 1.6 | 0.00 | 2.16 | 2.16 | 92 | 1010.1 |
| 20260506010714 | 8 | 249 | 4.8 | 6.4 | 0.00 | 2.16 | 2.16 | 92 | 1010.1 |
| 20260506010211 | 8 | 297 | 0.0 | 0.0 | 0.00 | 2.16 | 2.16 | 92 | 1010.4 |
| 20260506005708 | 8 | 212 | 1.6 | 1.6 | 0.00 | 2.16 | 2.16 | 92 | 1010.3 |
| 20260506005205 | 8 | 217 | 0.0 | 1.6 | 0.00 | 2.16 | 2.16 | 92 | 1010.0 |
| 20260506004700 | 8 | 281 | 8.0 | 12.9 | 0.00 | 2.16 | 2.16 | 92 | 1009.9 |
| 20260506004159 | 8 | 222 | 4.8 | 8.0 | 0.00 | 2.16 | 2.16 | 92 | 1010.0 |
| 20260506003654 | 8 | 323 | 3.2 | 4.8 | 0.00 | 2.16 | 2.16 | 91 | 1009.7 |
| 20260506003151 | 8 | 263 | 1.6 | 4.8 | 0.00 | 2.16 | 2.16 | 91 | 1009.9 |
| 20260506002646 | 8 | 319 | 4.8 | 8.0 | 0.00 | 2.16 | 2.16 | 90 | 1010.0 |
| 20260506002143 | 8 | 279 | 3.2 | 4.8 | 0.00 | 2.16 | 2.16 | 90 | 1010.0 |
| 20260506001638 | 8 | 132 | 12.9 | 16.1 | 0.00 | 2.16 | 2.16 | 90 | 1010.0 |
| 20260506001136 | 8 | 254 | 3.2 | 4.8 | 0.00 | 2.16 | 2.16 | 90 | 1009.7 |
| 20260506000633 | 8 | 87 | 3.2 | 4.8 | 0.00 | 2.16 | 2.16 | 89 | 1009.9 |
| 20260506000131 | 8 | 41 | 6.4 | 8.0 | 0.00 | 2.16 | 2.16 | 88 | 1010.0 |
| 20260505235629 | 8 | 62 | 4.8 | 6.4 | 0.00 | 2.16 | 2.16 | 88 | 1009.9 |
| 20260505235125 | 8 | 2 | 4.8 | 6.4 | 0.00 | 2.16 | 2.16 | 89 | 1009.9 |
| 20260505234622 | 8 | 47 | 9.7 | 16.1 | 0.00 | 2.16 | 2.16 | 88 | 1009.4 |
| 20260505234119 | 8 | 117 | 12.9 | 19.3 | 0.00 | 2.16 | 2.16 | 88 | 1009.6 |
| 20260505233617 | 8 | 254 | 0.0 | 1.6 | 0.00 | 2.16 | 2.16 | 88 | 1009.4 |
| 20260505233114 | 8 | 192 | 3.2 | 4.8 | 0.00 | 2.16 | 2.16 | 88 | 1009.5 |
| 20260505232612 | 8 | 64 | 11.3 | 17.7 | 0.00 | 2.16 | 2.16 | 87 | 1009.1 |
| 20260505232109 | 8 | 12 | 8.0 | 12.9 | 0.00 | 2.16 | 2.16 | 88 | 1009.1 |
| 20260505231606 | 9 | 184 | 4.8 | 8.0 | 0.00 | 2.16 | 2.16 | 87 | 1008.9 |
| 20260505231104 | 9 | 128 | 3.2 | 4.8 | 0.00 | 2.16 | 2.16 | 86 | 1009.0 |
| 20260505230602 | 9 | 196 | 3.2 | 4.8 | 0.00 | 2.16 | 2.16 | 86 | 1009.2 |
| 20260505230058 | 9 | 213 | 0.0 | 1.6 | 0.00 | 2.16 | 2.16 | 85 | 1009.0 |
| 20260505225555 | 9 | 341 | 8.0 | 11.3 | 0.00 | 2.16 | 2.16 | 85 | 1009.2 |
| 20260505225050 | 9 | 301 | 1.6 | 1.6 | 0.00 | 2.16 | 2.16 | 84 | 1009.0 |
| 20260505224548 | 9 | 248 | 1.6 | 1.6 | 0.00 | 2.16 | 2.16 | 84 | 1009.0 |
| 20260505224045 | 9 | 337 | 6.4 | 6.4 | 0.00 | 2.16 | 2.16 | 84 | 1009.0 |
| 20260505223542 | 10 | 283 | 3.2 | 6.4 | 0.00 | 2.16 | 2.16 | 85 | 1008.7 |
| 20260505223038 | 10 | 73 | 0.0 | 1.6 | 0.00 | 2.16 | 2.16 | 84 | 1008.9 |
| 20260505222534 | 10 | 308 | 3.2 | 4.8 | 0.00 | 2.16 | 2.16 | 84 | 1008.4 |
| 20260505222031 | 10 | 207 | 0.0 | 1.6 | 0.00 | 2.16 | 2.16 | 84 | 1008.4 |
| 20260505221528 | 10 | 335 | 4.8 | 6.4 | 0.00 | 2.16 | 2.16 | 83 | 1008.5 |
| 20260505221024 | 10 | 1 | 8.0 | 12.9 | 0.00 | 2.16 | 2.16 | 84 | 1008.4 |
| 20260505220522 | 10 | 60 | 3.2 | 6.4 | 0.00 | 2.16 | 2.16 | 84 | 1008.4 |
| 20260505220020 | 10 | 2 | 9.7 | 12.9 | 0.00 | 2.16 | 2.16 | 86 | 1008.5 |
| 20260505215518 | 10 | 174 | 6.4 | 8.0 | 0.00 | 2.16 | 2.16 | 85 | 1008.7 |
| 20260505215015 | 10 | 57 | 12.9 | 17.7 | 0.00 | 2.16 | 2.16 | 85 | 1008.7 |
| 20260505214513 | 10 | 227 | 4.8 | 6.4 | 0.00 | 2.16 | 2.16 | 86 | 1008.5 |
| 20260505214009 | 10 | 112 | 6.4 | 11.3 | 0.00 | 2.16 | 2.16 | 86 | 1008.4 |
| 20260505213508 | 10 | 305 | 1.6 | 1.6 | 0.00 | 2.16 | 2.16 | 87 | 1008.4 |
| 20260505213004 | 10 | 102 | 3.2 | 4.8 | 0.00 | 2.16 | 2.16 | 87 | 1008.2 |
| 20260505212500 | 10 | 71 | 9.7 | 12.9 | 0.00 | 2.16 | 2.16 | 85 | 1008.3 |
| 20260505211957 | 10 | 262 | 3.2 | 4.8 | 0.00 | 2.16 | 2.16 | 86 | 1008.3 |
| 20260505211454 | 10 | 287 | 6.4 | 8.0 | 0.00 | 2.16 | 2.16 | 87 | 1008.2 |
| 20260505210950 | 10 | 158 | 12.9 | 17.7 | 0.00 | 2.16 | 2.16 | 88 | 1008.2 |
| 20260505210448 | 10 | 43 | 17.7 | 24.1 | 0.00 | 2.16 | 2.16 | 89 | 1008.4 |
| 20260505205944 | 10 | 203 | 3.2 | 4.8 | 0.00 | 2.16 | 2.16 | 90 | 1008.3 |
| 20260505205443 | 10 | 49 | 3.2 | 6.4 | 0.00 | 2.16 | 2.16 | 90 | 1008.4 |
| 20260505204939 | 10 | 35 | 8.0 | 11.3 | 0.00 | 2.16 | 2.16 | 89 | 1008.3 |
| 20260505204437 | 10 | 304 | 6.4 | 6.4 | 0.00 | 2.16 | 2.16 | 88 | 1008.5 |
| 20260505203934 | 10 | 82 | 3.2 | 4.8 | 0.00 | 2.16 | 2.16 | 88 | 1008.4 |
| 20260505203431 | 10 | 322 | 1.6 | 4.8 | 0.00 | 2.16 | 2.16 | 88 | 1008.5 |
| 20260505202927 | 10 | 324 | 8.0 | 12.9 | 0.00 | 2.16 | 2.16 | 88 | 1008.5 |
| 20260505202423 | 10 | 251 | 8.0 | 11.3 | 0.00 | 2.16 | 2.16 | 88 | 1008.2 |
| 20260505201920 | 10 | 189 | 8.0 | 8.0 | 0.00 | 2.16 | 2.16 | 89 | 1008.0 |
| 20260505201417 | 10 | 280 | 8.0 | 11.3 | 0.00 | 2.16 | 2.16 | 89 | 1008.1 |
| 20260505200915 | 10 | 42 | 8.0 | 11.3 | 0.00 | 2.16 | 2.16 | 90 | 1008.2 |
| 20260505200412 | 10 | 18 | 8.0 | 11.3 | 0.00 | 2.16 | 2.16 | 90 | 1008.3 |
| 20260505195907 | 10 | 264 | 8.0 | 12.9 | 0.00 | 2.16 | 2.16 | 90 | 1008.3 |
| 20260505195405 | 11 | 263 | 0.0 | 1.6 | 0.00 | 2.16 | 2.16 | 91 | 1007.8 |
| 20260505194902 | 11 | 281 | 11.3 | 16.1 | 0.00 | 2.16 | 2.16 | 91 | 1008.0 |
| 20260505194400 | 11 | 126 | 3.2 | 4.8 | 0.00 | 2.16 | 2.16 | 91 | 1008.0 |
| 20260505193900 | 11 | 60 | 1.6 | 4.8 | 0.00 | 2.16 | 2.16 | 90 | 1008.1 |
| 20260505193358 | 11 | 263 | 4.8 | 6.4 | 0.00 | 2.16 | 2.16 | 89 | 1008.1 |
| 20260505192855 | 11 | 221 | 3.2 | 6.4 | 0.00 | 2.16 | 2.16 | 90 | 1008.1 |
| 20260505192354 | 11 | 290 | 4.8 | 11.3 | 0.00 | 2.16 | 2.16 | 89 | 1007.8 |
| 20260505191851 | 11 | 334 | 6.4 | 8.0 | 0.00 | 2.16 | 2.16 | 89 | 1007.9 |
| 20260505191349 | 11 | 296 | 4.8 | 8.0 | 0.00 | 2.16 | 2.16 | 89 | 1007.5 |
| 20260505190846 | 11 | 109 | 8.0 | 17.7 | 0.00 | 2.16 | 2.16 | 88 | 1007.5 |
| 20260505190341 | 11 | 199 | 4.8 | 8.0 | 0.00 | 2.16 | 2.16 | 88 | 1007.6 |
| 20260505185837 | 11 | 295 | 6.4 | 8.0 | 0.00 | 2.16 | 2.16 | 88 | 1007.5 |
| 20260505185334 | 11 | 235 | 1.6 | 1.6 | 0.00 | 2.16 | 2.16 | 88 | 1007.7 |
| 20260505184830 | 11 | 337 | 9.7 | 12.9 | 0.00 | 2.16 | 2.16 | 89 | 1007.4 |
| 20260505184327 | 11 | 242 | 0.0 | 1.6 | 0.00 | 2.16 | 2.16 | 90 | 1007.8 |
| 20260505183824 | 11 | 26 | 8.0 | 16.1 | 0.00 | 2.16 | 2.16 | 88 | 1007.8 |
| 20260505183321 | 11 | 222 | 3.2 | 4.8 | 0.00 | 2.16 | 2.16 | 89 | 1008.0 |
| 20260505182818 | 11 | 180 | 4.8 | 6.4 | 0.00 | 2.16 | 2.16 | 89 | 1007.7 |
| 20260505182314 | 12 | 8 | 9.7 | 11.3 | 0.00 | 2.16 | 2.16 | 89 | 1007.7 |
| 20260505181811 | 12 | 322 | 3.2 | 6.4 | 0.00 | 2.16 | 2.16 | 89 | 1007.5 |
| 20260505181309 | 12 | 294 | 4.8 | 8.0 | 0.00 | 2.16 | 2.16 | 89 | 1007.4 |
| 20260505180805 | 12 | 140 | 3.2 | 6.4 | 0.00 | 2.16 | 2.16 | 90 | 1007.2 |
| 20260505180301 | 12 | 29 | 6.4 | 8.0 | 0.13 | 2.16 | 2.16 | 90 | 1007.2 |
| 20260505175758 | 12 | 56 | 8.0 | 11.3 | 0.13 | 2.16 | 2.16 | 90 | 1006.9 |
| 20260505175254 | 12 | 124 | 8.0 | 8.0 | 0.00 | 2.13 | 2.13 | 90 | 1007.4 |
| 20260505174751 | 12 | 111 | 14.5 | 17.7 | 0.00 | 2.13 | 2.13 | 90 | 1007.1 |
| 20260505174248 | 12 | 123 | 8.0 | 12.9 | 0.00 | 2.13 | 2.13 | 90 | 1007.3 |
| 20260505173744 | 12 | 70 | 4.8 | 8.0 | 0.00 | 2.13 | 2.13 | 91 | 1007.2 |
| 20260505173241 | 12 | 266 | 3.2 | 4.8 | 0.00 | 2.13 | 2.13 | 91 | 1007.3 |
| 20260505172738 | 12 | 36 | 6.4 | 11.3 | 0.00 | 2.13 | 2.13 | 91 | 1007.1 |
| 20260505172235 | 12 | 108 | 4.8 | 6.4 | 0.00 | 2.13 | 2.13 | 92 | 1007.0 |
| 20260505171735 | 12 | 16 | 8.0 | 11.3 | 0.00 | 2.13 | 2.13 | 92 | 1006.9 |
| 20260505171232 | 12 | 256 | 8.0 | 12.9 | 0.00 | 2.13 | 2.13 | 92 | 1007.1 |
| 20260505170729 | 12 | 123 | 9.7 | 12.9 | 0.00 | 2.13 | 2.13 | 92 | 1006.9 |
| 20260505170226 | 12 | 283 | 4.8 | 6.4 | 0.00 | 2.13 | 2.13 | 92 | 1007.0 |
| 20260505165721 | 12 | 20 | 6.4 | 8.0 | 0.00 | 2.13 | 2.13 | 92 | 1007.0 |
| 20260505165217 | 12 | 268 | 4.8 | 4.8 | 0.00 | 2.13 | 2.13 | 93 | 1007.1 |
| 20260505164713 | 12 | 89 | 4.8 | 6.4 | 0.00 | 2.13 | 2.13 | 93 | 1006.8 |
| 20260505164210 | 12 | 47 | 11.3 | 16.1 | 0.00 | 2.13 | 2.13 | 93 | 1007.0 |
| 20260505163708 | 12 | 32 | 1.6 | 1.6 | 0.00 | 2.13 | 2.13 | 93 | 1006.8 |
| 20260505163206 | 12 | 31 | 4.8 | 6.4 | 0.00 | 2.13 | 2.13 | 93 | 1007.0 |
| 20260505162703 | 12 | 318 | 1.6 | 4.8 | 0.00 | 2.13 | 2.13 | 93 | 1006.9 |
| 20260505162201 | 12 | 223 | 3.2 | 6.4 | 0.00 | 2.13 | 2.13 | 93 | 1006.8 |
| 20260505161657 | 12 | 59 | 8.0 | 12.9 | 0.00 | 2.13 | 2.13 | 93 | 1006.9 |
| 20260505161154 | 12 | 44 | 3.2 | 8.0 | 0.00 | 2.13 | 2.13 | 93 | 1006.9 |
| 20260505160652 | 12 | 0 | 12.9 | 17.7 | 0.00 | 2.13 | 2.13 | 93 | 1006.6 |